Regional Weather Roundup
Issued by NWS Upton, NY

Current Version | Previous Version | Text Only | Print | Product List | Glossary On
Versions: 1 2 3 4 5 6 7 8 9 10 11 12 13 14 15 16 17 18 19 20 21 22 23 24 25 26 27 28 29 30 31 32 33 34 35
000 ASUS41 KOKX 191008 RWROKX REGIONAL WEATHER ROUNDUP NATIONAL WEATHER SERVICE NEW YORK NY 500 AM EST SUN NOV 19 2017 NOTE: "FAIR" INDICATES FEW OR NO CLOUDS BELOW 12,000 FEET WITH NO SIGNIFICANT WEATHER AND/OR OBSTRUCTIONS TO VISIBILITY. NYZ071-072-176-178-NJZ106-104-191100- NEW YORK CITY METRO AREA CITY SKY/WX TMP DP RH WIND PRES REMARKS Central Park RAIN 57 56 96 VRB6 29.27F Bronx Bot Gard N/A 57 54 88 SW15 29.25S LaGuardia APRT LGT RAIN 59 55 87 SW15 29.25F Kennedy INTL LGT RAIN 57 56 96 S20 29.28F FOG Breezy Point N/A 57 N/A N/A SW17G26 N/A Newark/Liberty LGT RAIN 58 56 93 SW15G26 29.26F Teterboro LGT RAIN 58 55 90 S16 29.23F $$ NYZ177-179-078>081-191100- LONG ISLAND NEW YORK CITY SKY/WX TMP DP RH WIND PRES REMARKS Jones Beach N/A 55 N/A N/A SW14G22 N/A Matinecock PT N/A 57 N/A N/A SW20G26 N/A Farmingdale RAIN 57 55 93 SW18G25 29.28F FOG MacArthur/ISP LGT RAIN 58 56 93 SW21G29 29.28F FOG Shirley LGT RAIN 58 57 97 S16G28 29.30F FOG Mt Sinai Harb N/A N/A N/A N/A S14G22 N/A Westhampton LGT RAIN 59 56 89 SW12G25 29.32F East Hampton RAIN 58 56 93 SW14G23 29.31F Southold NOT AVBL Montauk NOT AVBL $$ NYZ052-065-067-191100- HUDSON VALLEY CITY SKY/WX TMP DP RH WIND PRES REMARKS White Plains LGT RAIN 56 54 93 S10G16 29.23F FOG Larchmont Harb N/A 55 N/A N/A S21 N/A Croton On Huds N/A 57 N/A N/A S10G18 N/A Newburgh NOT AVBL Montgomery CLOUDY 44 43 96 CALM 29.20R FOG Poughkeepsie CLOUDY 54 50 86 S7 29.18F Albany LGT RAIN 50 46 86 S18G32 29.13F $$ NJZ001-105-106-008-010-013-015-019>022-104-191100- NEW JERSEY CITY SKY/WX TMP DP RH WIND PRES REMARKS Newark/Liberty LGT RAIN 58 56 93 SW15G26 29.26F Teterboro LGT RAIN 58 55 90 S16 29.23F Caldwell CLOUDY 57 56 96 SW13G25 29.25F Somerville CLOUDY 59 56 89 S10G22 29.25R Linden LGT RAIN 58 55 89 SW8G20 29.27R Perth Amboy N/A 59 N/A N/A SW20G30 N/A Sussex CLOUDY 56 54 93 SW14G21 29.20F Andover NOT AVBL Trenton RAIN 59 56 89 SW18G28 29.27S Millville LGT RAIN 60 58 92 SW8G17 29.33S Atlantic City LGT RAIN 61 57 87 SW18G36 29.33F Wrightstown LGT RAIN 59 55 88 SW20G28 29.26F Toms River RAIN 58 56 93 SW15G26 29.31F Belmar RAIN 58 56 93 SW15G21 29.31S $$ PAZ047>061-062-071-191100- EASTERN PENNSYLVANIA CITY SKY/WX TMP DP RH WIND PRES REMARKS Philadelphia LGT RAIN 59 56 89 SW20G29 29.29S Allentown CLOUDY 59 52 77 S21G31 29.22F Scranton LGT RAIN 55 52 89 SW18G38 29.17R FOG $$ CTZ002-004>006-009-010-012-RIZ004-006-007-MAZ004-011-015-191100- SOUTHERN NEW ENGLAND IN CT CITY SKY/WX TMP DP RH WIND PRES REMARKS Bradley INTL LGT RAIN 55 54 96 S13 29.23F Hartford LGT RAIN 58 55 90 S12G18 29.25F Danbury LGT RAIN 57 53 86 SW13G22 29.23F Wtrbury/Oxford LGT RAIN 54 53 97 VRB7G23 29.24F Norwalk Harbor N/A 57 N/A N/A S21 N/A Bridgeport LGT RAIN 58 54 86 SW18 29.25F Meriden RAIN 56 54 93 S9G18 29.24F New Haven LGT RAIN 58 54 86 S12G22 29.26F Chester LGT RAIN 57 57 100 SW12G28 29.28F Groton LGT RAIN 59 56 89 SW22G37 29.28F Wilimantic LGT RAIN 60 55 83 SW13G28 29.26F IN RI CITY SKY/WX TMP DP RH WIND PRES REMARKS Providence RAIN 60 59 96 SW17G26 29.30F Block Island LGT RAIN 60 57 89 SW25G36 29.33F FOG Westerly LGT RAIN 60 59 96 SW17G30 29.31F FOG IN MA CITY SKY/WX TMP DP RH WIND PRES REMARKS Boston LGT RAIN 58 55 90 S16G24 29.26F Worcester LGT RAIN 54 51 90 SW17G25 29.25F Westfield LGT RAIN 42 42 100 CALM 29.21F FOG Provincetown CLOUDY 58 55 90 S17G24 29.34F Nantucket CLOUDY 58 56 93 S18 29.40F $$ ANZ330-335-338-340-345-350-353-355-191100- COASTAL MARINE OBSERVATIONS STATION/POSITION TIME SKY/WX TEMP WIND PRES VSBY WAVE AIR SEA DIR/SP/G HT/PER (UTC) (F) (DEG/KT/KT) (MB) (MI) (FT/S) NY HARB ENTRANCE 0850 59 59 210/ 23/ 29 991.5 9/ 7 20 S FIRE ISLAND 0850 60 58 220/ 29/ 35 992.7 13/10 GREAT SOUTH BAY 0930 55 46 220/ 19/ 25 N/A HUDSON CANYON 0950 65 61 200/ 27/ 33 993.7 12/ 9 KINGS POINT NOT AVBL EXECUTION ROCKS 0930 57 180/ 16/ 19 N/A WESTERN LI SOUND 0849 58 200/ 17/ 23 N/A 1/ 3 CENTRAL LI SOUND NOT AVBL ROBBINS REEF NOT AVBL $$ >>>>>>>>>>>>>>>>>>>>>>>>>>>> KEY <<<<<<<<<<<<<<<<<<<<<<<<<<< > < > SKY/WX - Sky Condition/Present Weather < > TMP - Temperature in Fahrenheit < > DP - Dew Point in Fahrenheit < > RH - Relative Humidity in Percent < > WIND - Direction (from) and Speed in MPH < > PRES - Mean Sea Level Pressure (inches of Hg) < > WCI - Wind Chill Index < > VSB - VISIBILITY IN MILES < > HX - HEAT INDEX < > TC - TEMPERATURE IN CELSIUS < > VRB - VARIABLE WIND DIRECTION < > < >>>>>>>>>>>>>>>>>>>>>>>>>>>> KEY <<<<<<<<<<<<<<<<<<<<<<<<<<<

USA.gov is the U.S. government's official web portal to all federal, state and local government web resources and services.